Overview Statistics Trail Chart Weather Telemetry Raw packets
 

This is the latest recevied weather packets stored in our database for station/object K6GMW. If no packets are shown the sender has not sent any weather packets the latest 10 day(s).

<< 34 35 36 37 38 39 40 >>
Time Temp. Humidity Pressure Rain* Wind** Luminosity Snow
1788396737 29.44° C 64% 1014.6 hPa 0 mm - 1 W/m² -
1788396433 29.44° C 64% 1014.6 hPa 0 mm - 3 W/m² -
1788396128 30° C 63% 1014.6 hPa 0 mm - 5 W/m² -
1788395823 30° C 62% 1014.5 hPa 0 mm - 8 W/m² -
1788395518 30.56° C 61% 1014.5 hPa 0 mm - 11 W/m² -
1788395214 30.56° C 60% 1014.5 hPa 0 mm - 15 W/m² -
1788394908 30.56° C 59% 1014.3 hPa 0 mm - 19 W/m² -
1788394603 30.56° C 59% 1014.3 hPa 0 mm - 20 W/m² -
1788394302 30.56° C 59% 1014.2 hPa 0 mm - 19 W/m² -
1788393998 31.11° C 59% 1014.4 hPa 0 mm - 21 W/m² -
1788393698 31.11° C 59% 1014.1 hPa 0 mm - 30 W/m² -
1788393396 31.11° C 59% 1014.5 hPa 0 mm - 38 W/m² -
1788393092 31.11° C 58% 1014.5 hPa 0 mm - 36 W/m² -
1788392791 31.11° C 58% 1014.6 hPa 0 mm - 36 W/m² -
1788392491 31.67° C 58% 1014.6 hPa 0 mm - 45 W/m² -
1788392186 31.67° C 56% 1014.5 hPa 0 mm - 57 W/m² -
1788391880 31.67° C 55% 1014.6 hPa 0 mm - 66 W/m² -
1788391580 31.67° C 55% 1014.5 hPa 0 mm - 79 W/m² -
1788391279 31.67° C 55% 1014.5 hPa 0 mm - 75 W/m² -
1788390979 31.67° C 55% 1014.3 hPa 0 mm - 81 W/m² -
1788390678 31.67° C 54% 1014.5 hPa 0 mm - 75 W/m² -
1788390374 31.67° C 54% 1014.2 hPa 0 mm - 82 W/m² -
1788390072 32.22° C 53% 1014.2 hPa 0 mm - 75 W/m² -
1788389768 32.78° C 52% 1014.4 hPa 0 mm - 85 W/m² -
1788389467 33.33° C 52% 1014.3 hPa 0 mm - 224 W/m² -

* Rain latest hour (hover to see other rain measurements)
** Current wind speed in m/s (hover to see current wind gust speed)